Vorticity
8 8 7 7 7 7 7 7 7 7 7 7 7 7 7 7 7 7 7 7 7 7 7 7 7 7 6 7 6 6 6 7 7 7 7 6 5 4 3 2 1 1 1 0 0 0 0 1 2 3 4 5 6 6 7 7 7 7 7 8 8 8 9 9 9 9 9 9 9
8 8 7 7 7 7 7 7 7 7 7 7 7 7 7 7 7 7 7 7 7 7 7 7 7 7 7 7 6 7 7 7 7 6 6 5 3 2 1 1 1 1 1 1 1 1 2 2 3 3 4 5 6 6 7 7 8 7 7 8 8 9 9 9 9 9 9 9 8
8 8 7 7 7 7 7 7 7 7 7 7 7 7 8 8 8 8 8 8 8 8 8 7 7 7 7 6 7 7 7 7 6 5 4 2 1 0 0 1 1 2 2 2 2 2 2 3 3 4 5 5 6 7 7 8 8 8 8 8 9 9 9 9 9 9 9 8 8
7 8 8 8 8 8 7 7 8 8 8 8 8 8 8 8 8 8 8 8 8 8 8 7 7 7 6 6 7 7 6 6 5 3 2 0 -1 -1 0 1 2 2 2 2 2 3 3 3 4 5 5 6 7 7 8 8 8 9 9 9 9 9 8 9 8 8 8 8 8
8 8 8 8 8 8 8 8 8 8 8 8 8 9 9 9 9 9 9 9 8 8 7 7 7 7 7 7 6 6 5 4 3 1 -0 -1 -1 -0 1 2 2 2 2 2 3 3 3 4 5 6 7 7 8 8 9 9 9 9 9 9 9 8 8 8 8 8 8 8 8
8 8 8 8 8 8 8 8 8 8 9 9 9 9 9 9 9 9 9 9 8 8 7 7 7 7 7 7 6 5 4 2 1 -1 -1 -1 -0 1 2 3 2 2 2 3 3 4 5 5 6 7 8 9 9 9 10 9 9 9 9 9 8 8 8 8 8 8 8 8 9
8 8 8 8 9 9 9 9 9 9 9 9 9 9 9 9 9 9 9 9 8 8 8 7 7 7 7 6 4 3 2 0 -1 -1 -1 -0 1 2 2 2 2 2 3 4 5 6 6 7 7 8 9 10 10 10 10 10 9 9 9 9 8 8 8 8 8 8 9 9 9
8 8 8 8 9 9 9 9 9 9 9 10 10 10 10 10 10 9 9 9 9 8 8 8 7 6 5 4 2 1 0 -1 -1 -1 0 1 2 2 2 2 2 3 4 5 6 7 7 8 9 9 10 10 10 10 10 10 9 9 9 9 9 9 8 8 9 9 9 9 9
9 9 9 9 9 9 9 9 9 9 10 10 10 10 10 10 9 9 9 9 8 8 7 7 5 4 3 2 1 0 -0 -0 0 1 1 2 2 2 2 3 4 5 6 7 8 8 8 9 9 10 10 10 10 10 10 10 9 9 9 9 9 9 9 9 9 9 9 8 8
9 9 9 9 9 9 10 10 10 10 10 10 10 10 10 10 9 9 9 8 7 7 6 5 3 2 1 0 0 1 1 1 2 2 2 2 3 3 3 4 5 6 7 8 8 9 9 9 10 10 10 10 10 10 10 10 9 9 9 9 9 9 9 9 9 8 7 6 5
9 9 9 9 10 10 10 10 10 10 10 10 10 10 9 9 9 8 8 7 6 5 4 3 1 1 0 1 1 2 3 3 3 3 3 3 3 4 5 5 6 7 8 8 9 9 9 10 10 10 10 10 10 10 10 10 9 9 9 9 9 9 9 8 7 6 5 3 3
9 9 10 10 10 10 10 10 10 10 10 10 10 9 9 8 8 7 6 6 5 4 3 1 0 0 1 2 3 4 4 4 4 3 3 3 4 5 6 6 7 8 8 9 9 9 9 9 9 10 10 10 10 10 10 9 9 9 9 9 9 9 8 6 5 4 3 3 4
9 9 10 10 10 10 10 10 10 10 10 9 9 8 8 8 7 7 6 5 4 3 1 -0 0 1 3 4 5 5 4 4 3 3 3 4 5 6 7 7 8 8 8 9 8 8 8 9 9 9 9 10 10 9 9 9 10 10 9 9 8 7 6 4 4 4 6 8 12
9 10 10 10 10 10 10 10 10 10 9 9 8 8 8 7 7 7 6 5 3 1 0 -0 1 3 5 6 5 4 3 2 2 3 4 5 6 7 8 8 8 8 8 8 8 8 8 8 9 9 9 9 9 9 10 10 10 9 8 7 6 5 5 5 7 10 14 18 24
9 9 10 10 10 10 10 9 9 9 9 8 8 8 8 8 8 7 5 3 1 0 0 2 4 5 6 5 4 3 2 2 2 4 5 6 7 8 8 8 8 8 8 7 7 7 8 8 9 9 9 9 10 10 10 10 9 8 7 6 5 6 7 10 15 20 25 31 36
9 9 9 9 9 9 9 9 9 8 8 8 8 8 8 8 7 5 3 1 0 1 2 5 6 6 4 2 1 1 1 2 4 5 7 8 8 9 9 8 8 8 8 7 7 8 8 8 9 9 9 10 10 10 10 9 8 7 6 6 7 10 14 20 26 32 37 41 43
9 9 9 9 9 9 9 8 8 8 8 8 8 8 8 7 5 3 1 0 1 3 5 7 6 4 1 -1 -1 0 2 4 6 7 8 9 9 8 8 8 8 8 7 7 8 8 8 9 9 10 10 11 11 10 9 8 7 6 7 9 13 19 26 33 38 42 44 45 45
8 8 8 8 8 8 8 8 8 8 9 9 9 8 7 5 2 1 0 1 4 6 7 6 4 1 -1 -1 -0 2 4 6 7 8 9 9 8 8 8 8 8 8 8 8 8 8 9 9 10 10 11 11 11 9 8 6 7 8 12 17 24 31 38 43 45 46 46 44 42
8 8 8 8 8 8 8 8 9 9 9 9 8 6 4 1 0 0 2 4 7 8 7 4 1 -1 -2 -1 1 4 6 8 8 9 9 9 8 8 8 8 8 8 8 8 9 9 9 10 11 11 11 11 9 8 7 7 10 15 22 29 36 42 46 47 47 46 44 41 39
8 8 8 8 8 8 8 9 9 9 9 8 5 3 1 -1 -0 2 5 8 10 8 5 1 -1 -2 -1 1 3 6 8 9 9 9 9 8 8 8 8 8 8 8 9 9 9 10 11 11 12 12 11 9 7 7 9 12 19 26 34 40 45 47 48 47 45 43 41 39 37
8 8 8 8 8 9 9 10 10 9 7 5 2 -0 -2 -2 1 5 9 11 10 6 2 -2 -2 -1 1 3 5 7 9 10 9 9 9 9 9 8 8 8 9 9 9 10 10 11 12 12 12 10 8 6 7 10 15 23 30 37 43 46 48 48 47 45 43 41 39 37 35
7 8 8 9 9 10 10 10 9 7 4 1 -1 -2 -2 1 5 9 12 11 7 3 -1 -3 -2 0 3 5 7 9 10 10 10 9 9 9 9 9 9 9 9 10 10 11 12 12 13 12 10 7 6 7 12 18 26 34 40 44 46 47 47 47 45 44 41 39 36 33 30
8 8 9 10 10 10 10 8 6 3 0 -2 -3 -2 1 4 9 11 12 9 4 -0 -3 -3 -1 2 5 7 9 10 10 10 10 10 10 9 9 9 10 10 10 11 11 12 13 13 11 9 7 7 9 13 21 29 37 42 45 46 46 47 47 46 44 41 37 33 29 25 23
8 9 10 10 10 9 7 5 2 -0 -2 -3 -2 1 4 8 11 12 10 6 1 -3 -4 -3 -0 3 6 9 10 10 10 10 10 10 10 10 10 10 10 11 11 12 13 14 13 11 9 6 7 10 16 24 32 39 43 45 46 47 47 47 46 43 40 35 30 25 21 18 16
9 9 10 9 8 6 4 1 -1 -2 -2 -1 1 4 8 11 13 11 8 2 -2 -5 -5 -3 1 5 8 10 10 11 11 11 11 10 10 11 11 11 11 12 13 13 14 13 11 9 7 7 11 18 26 35 40 43 45 45 46 47 47 46 42 37 32 26 21 17 15 14 13
9 9 8 7 5 2 0 -1 -2 -1 0 2 5 8 11 14 13 10 4 -1 -5 -6 -6 -2 3 6 9 10 10 11 11 11 11 11 11 11 11 12 13 13 14 14 13 11 8 7 8 12 21 29 37 42 43 43 44 45 47 47 46 42 36 29 23 17 15 13 13 13 14
8 7 5 3 1 -0 -1 -1 0 2 4 6 9 12 14 15 12 7 1 -5 -8 -8 -5 0 5 7 9 10 10 11 11 11 11 11 11 12 12 13 14 14 14 13 11 8 6 8 13 22 32 39 44 44 43 42 43 45 46 44 39 33 25 19 15 12 12 12 13 14 14
5 3 1 -0 -0 -0 0 2 4 6 8 10 12 14 15 15 10 4 -3 -8 -10 -7 -3 3 6 7 8 9 11 11 12 12 12 12 12 13 13 14 14 14 13 10 8 6 8 14 23 33 41 45 45 43 40 41 43 45 42 37 30 23 17 13 10 10 10 11 12 13 12
1 0 -0 -0 1 2 4 6 8 9 11 12 14 15 15 13 7 0 -6 -10 -9 -5 -0 4 6 7 8 10 11 11 12 12 13 13 13 14 15 15 14 13 10 7 7 8 15 24 34 42 46 46 43 40 39 40 41 41 35 28 21 15 11 9 8 8 9 9 9 9 8
-1 -0 1 3 5 6 8 9 10 11 12 13 14 15 14 11 4 -3 -8 -11 -8 -3 1 4 5 6 8 10 11 12 13 13 14 14 15 15 15 14 12 10 7 7 9 16 25 34 42 46 46 43 40 37 37 38 37 33 26 20 15 11 10 8 8 7 7 7 7 6 4
1 3 5 7 9 10 10 10 11 11 12 13 14 14 13 8 1 -5 -9 -10 -6 -2 1 3 4 6 8 10 12 13 13 14 15 16 16 16 14 12 9 7 7 10 17 26 35 41 46 47 44 41 37 35 35 33 30 24 19 14 11 10 9 8 8 7 7 7 6 5 4
4 7 9 10 11 11 10 10 10 11 12 14 14 14 11 6 -1 -6 -9 -8 -5 -2 1 2 4 6 8 11 13 14 15 16 16 17 16 14 12 9 7 6 10 17 26 35 41 45 46 45 41 38 35 33 31 27 23 17 13 11 9 8 8 8 8 9 9 9 8 7 6
8 10 12 12 11 10 10 10 10 11 13 14 14 13 10 4 -1 -5 -7 -6 -3 -1 0 1 3 6 9 11 13 15 16 17 17 16 14 12 9 7 6 9 17 26 35 41 45 46 45 42 38 35 32 29 25 21 16 12 9 8 7 7 7 8 10 11 12 11 11 10 9
11 12 12 12 11 10 10 10 11 12 13 14 14 12 9 4 -1 -3 -4 -4 -3 -2 -1 1 4 7 10 13 14 16 17 18 17 15 12 9 6 6 9 15 25 34 41 45 46 45 43 40 35 31 27 24 19 14 10 8 6 6 6 6 7 9 11 12 13 12 12 11 11
12 12 12 11 10 9 10 10 12 13 13 14 13 11 8 5 1 -1 -3 -4 -4 -3 -2 0 4 8 11 15 17 18 18 18 16 13 9 6 6 8 14 23 34 41 45 46 45 44 41 36 31 26 22 17 13 9 7 5 5 5 6 7 8 10 12 13 12 12 12 12 12
13 12 11 9 9 9 10 11 12 13 13 12 11 10 8 6 4 2 -1 -4 -4 -3 -2 0 4 9 14 17 19 20 19 17 13 9 7 6 7 13 21 31 40 45 46 46 45 42 37 31 26 20 15 11 8 6 5 5 5 5 6 7 9 11 13 13 13 12 12 13 13
13 11 10 8 8 9 10 11 12 12 11 11 10 9 8 8 6 4 1 -3 -3 -3 -1 0 6 12 17 19 20 20 18 14 10 7 6 7 12 20 29 38 44 46 47 46 43 38 32 25 19 14 10 7 6 5 4 5 5 6 7 9 11 13 14 14 13 13 13 14 15
12 10 8 7 8 9 10 10 10 10 9 9 9 9 9 9 8 5 2 -1 -2 -2 -1 2 10 16 19 20 20 18 15 11 8 6 7 10 18 27 35 42 46 47 46 44 39 33 25 19 14 10 7 5 5 4 5 5 6 7 8 11 13 14 14 14 14 14 15 16 17
10 8 7 6 7 8 9 9 9 8 7 7 8 9 10 10 9 6 3 0 -1 -1 0 5 13 19 21 20 18 15 12 8 7 7 10 16 26 35 41 44 46 47 46 41 34 26 19 13 10 7 6 4 4 5 5 6 7 8 10 12 14 14 14 14 14 15 16 18 20
8 7 6 6 7 8 8 8 7 6 6 6 8 9 10 10 9 7 4 1 -1 -0 3 10 17 20 21 20 17 13 9 6 7 10 15 23 33 40 44 45 46 45 43 36 27 19 14 10 7 6 4 4 5 5 6 7 8 10 11 13 14 14 14 15 16 17 19 20 22
7 6 5 6 6 7 6 6 5 5 5 6 8 9 10 10 9 7 4 1 -0 2 7 15 20 21 20 18 14 10 7 6 9 14 22 31 39 44 46 45 45 43 38 29 20 14 10 7 6 5 4 4 5 6 7 8 9 11 13 14 14 15 16 16 17 19 20 22 23
Height
5692 5691 5689 5688 5687 5686 5684 5684 5682 5681 5680 5679 5677 5676 5675 5674 5672 5671 5670 5669 5668 5666 5665 5664 5663 5661 5660 5659 5658 5656 5655 5654 5653 5651 5649 5648 5646 5644 5643 5641 5639 5637 5634 5632 5630 5627 5625 5623 5620 5619 5617 5615 5613 5611 5609 5606 5604 5601 5598 5596 5593 5591 5589 5587 5584 5583 5580 5578 5575
5688 5687 5686 5684 5683 5682 5681 5679 5679 5677 5676 5675 5674 5672 5671 5670 5669 5667 5666 5665 5664 5662 5661 5660 5659 5657 5656 5655 5654 5652 5651 5649 5648 5646 5645 5643 5641 5639 5637 5635 5633 5631 5628 5626 5623 5621 5618 5616 5613 5611 5609 5607 5605 5603 5600 5597 5595 5593 5590 5587 5585 5583 5580 5578 5576 5574 5572 5569 5567
5684 5683 5682 5681 5679 5678 5677 5676 5674 5674 5672 5671 5669 5668 5667 5666 5664 5663 5662 5661 5659 5658 5657 5656 5654 5653 5652 5650 5649 5648 5646 5645 5643 5642 5640 5638 5636 5634 5632 5629 5627 5624 5622 5619 5617 5614 5611 5609 5606 5604 5601 5599 5597 5594 5592 5589 5586 5583 5581 5578 5576 5574 5571 5569 5567 5564 5562 5560 5558
5681 5679 5678 5677 5675 5674 5673 5672 5671 5669 5668 5667 5665 5664 5663 5662 5660 5659 5658 5657 5655 5654 5653 5651 5650 5649 5648 5646 5645 5643 5641 5640 5638 5636 5635 5633 5631 5628 5626 5623 5620 5618 5615 5612 5609 5607 5604 5601 5598 5596 5593 5591 5588 5586 5583 5580 5577 5574 5571 5569 5567 5564 5562 5559 5557 5554 5552 5550 5547
5677 5675 5674 5673 5672 5670 5669 5668 5667 5665 5664 5663 5661 5660 5659 5658 5656 5655 5654 5653 5651 5650 5649 5647 5646 5644 5643 5642 5640 5639 5637 5635 5633 5631 5629 5627 5625 5622 5620 5617 5614 5611 5608 5605 5602 5599 5596 5593 5590 5588 5585 5583 5580 5577 5574 5571 5568 5565 5562 5560 5558 5555 5553 5550 5547 5544 5542 5540 5537
5673 5671 5670 5669 5668 5666 5665 5664 5663 5661 5660 5659 5657 5656 5655 5654 5652 5651 5650 5649 5647 5646 5644 5643 5641 5640 5639 5637 5635 5634 5632 5630 5628 5626 5624 5621 5619 5616 5614 5611 5608 5604 5601 5598 5595 5591 5588 5585 5582 5579 5577 5574 5571 5568 5565 5562 5559 5556 5554 5551 5549 5546 5543 5541 5538 5535 5532 5529 5526
5669 5668 5666 5665 5664 5663 5661 5660 5659 5658 5656 5655 5654 5652 5651 5649 5648 5647 5645 5644 5643 5641 5640 5639 5637 5635 5634 5632 5631 5629 5627 5625 5622 5620 5618 5615 5613 5610 5607 5604 5601 5598 5594 5591 5587 5584 5580 5577 5574 5571 5568 5565 5562 5559 5556 5553 5550 5547 5544 5542 5539 5537 5534 5531 5528 5525 5522 5519 5516
5665 5664 5663 5661 5660 5659 5658 5656 5655 5654 5652 5651 5650 5648 5647 5645 5644 5643 5641 5640 5639 5637 5636 5634 5633 5631 5629 5627 5625 5624 5622 5619 5617 5614 5612 5609 5607 5604 5601 5598 5594 5591 5587 5583 5579 5576 5572 5568 5565 5563 5560 5557 5553 5550 5547 5544 5541 5538 5535 5533 5530 5527 5524 5521 5518 5514 5511 5508 5505
5662 5660 5659 5658 5657 5655 5654 5653 5651 5650 5649 5647 5646 5644 5643 5641 5640 5639 5637 5636 5634 5633 5631 5629 5628 5626 5624 5622 5620 5618 5616 5614 5612 5609 5606 5604 5601 5598 5594 5591 5588 5584 5580 5576 5572 5568 5564 5561 5557 5554 5551 5548 5545 5541 5538 5534 5531 5528 5525 5522 5520 5517 5514 5511 5507 5504 5500 5496 5493
5658 5657 5656 5654 5653 5652 5650 5649 5648 5646 5645 5643 5642 5640 5639 5637 5636 5634 5633 5631 5630 5628 5627 5625 5623 5621 5619 5617 5615 5613 5610 5608 5606 5603 5600 5597 5594 5591 5588 5584 5580 5577 5573 5569 5565 5561 5557 5553 5550 5546 5543 5540 5536 5533 5529 5526 5522 5519 5516 5513 5510 5507 5504 5500 5497 5493 5489 5485 5481
5655 5654 5652 5651 5649 5648 5647 5645 5644 5643 5641 5639 5638 5636 5635 5633 5632 5630 5629 5627 5625 5624 5622 5620 5618 5616 5614 5612 5610 5607 5604 5602 5599 5597 5594 5591 5588 5584 5580 5577 5573 5569 5565 5561 5557 5554 5549 5546 5542 5539 5535 5532 5528 5524 5521 5517 5513 5509 5506 5503 5500 5497 5494 5490 5486 5482 5478 5473 5469
5651 5650 5649 5647 5646 5644 5643 5642 5640 5639 5637 5636 5634 5633 5631 5629 5628 5626 5624 5623 5621 5619 5617 5615 5613 5611 5609 5606 5604 5601 5599 5596 5593 5590 5587 5584 5581 5577 5574 5570 5566 5562 5558 5554 5550 5546 5542 5538 5535 5531 5528 5524 5520 5516 5512 5509 5504 5500 5497 5493 5490 5486 5483 5479 5475 5471 5466 5461 5457
5648 5646 5645 5644 5642 5641 5639 5638 5637 5635 5634 5632 5630 5629 5627 5625 5624 5622 5620 5618 5616 5614 5613 5610 5608 5606 5603 5600 5598 5595 5593 5590 5587 5584 5581 5577 5574 5570 5567 5563 5559 5555 5551 5547 5543 5539 5534 5530 5526 5523 5519 5515 5512 5508 5504 5499 5495 5491 5487 5484 5480 5476 5472 5468 5464 5459 5454 5449 5444
5644 5643 5641 5640 5639 5637 5636 5634 5633 5631 5630 5628 5626 5624 5623 5621 5619 5617 5615 5614 5612 5609 5608 5605 5603 5600 5598 5595 5592 5589 5586 5583 5580 5577 5574 5570 5567 5564 5560 5556 5552 5548 5544 5539 5535 5531 5527 5523 5518 5514 5510 5506 5503 5499 5495 5491 5486 5482 5478 5474 5470 5466 5461 5457 5452 5447 5442 5436 5431
5640 5639 5638 5636 5635 5634 5632 5631 5629 5628 5626 5624 5622 5620 5619 5617 5615 5613 5611 5609 5607 5604 5602 5600 5597 5594 5591 5589 5586 5583 5580 5577 5574 5571 5567 5564 5560 5556 5553 5549 5545 5540 5536 5532 5527 5523 5519 5514 5510 5505 5501 5497 5494 5490 5486 5482 5478 5473 5469 5464 5460 5455 5450 5445 5440 5434 5429 5424 5419
5637 5635 5634 5633 5631 5630 5628 5627 5625 5624 5622 5620 5618 5616 5614 5612 5610 5609 5606 5604 5602 5599 5597 5594 5592 5589 5586 5583 5580 5577 5574 5570 5567 5564 5560 5557 5553 5549 5545 5541 5537 5533 5529 5524 5519 5515 5510 5506 5501 5497 5493 5489 5485 5481 5477 5473 5469 5464 5459 5454 5449 5444 5439 5434 5428 5422 5417 5411 5406
5633 5632 5630 5629 5627 5626 5624 5622 5621 5619 5617 5615 5614 5612 5610 5608 5606 5604 5601 5599 5597 5594 5591 5589 5586 5584 5580 5577 5574 5570 5567 5564 5560 5557 5553 5549 5546 5542 5538 5534 5529 5525 5520 5516 5511 5507 5502 5498 5493 5488 5484 5480 5476 5472 5468 5464 5459 5454 5449 5444 5439 5433 5427 5422 5416 5411 5405 5400 5396
5629 5628 5626 5625 5623 5621 5620 5618 5616 5614 5613 5611 5609 5607 5605 5603 5601 5599 5596 5594 5591 5589 5586 5583 5580 5577 5574 5571 5568 5564 5560 5557 5553 5549 5546 5542 5538 5534 5530 5526 5521 5517 5513 5508 5503 5499 5494 5489 5485 5480 5475 5471 5467 5463 5459 5454 5449 5444 5439 5433 5427 5422 5416 5410 5405 5400 5395 5390 5386
5625 5624 5622 5621 5619 5617 5615 5614 5612 5610 5608 5606 5604 5603 5600 5598 5596 5594 5591 5589 5586 5584 5581 5578 5575 5571 5568 5565 5562 5558 5554 5550 5547 5543 5539 5534 5530 5526 5522 5518 5513 5509 5504 5500 5495 5491 5486 5481 5477 5472 5467 5463 5458 5454 5449 5444 5439 5434 5428 5422 5417 5411 5406 5400 5395 5391 5386 5382 5379
5621 5620 5618 5616 5614 5613 5611 5609 5608 5606 5604 5602 5600 5598 5596 5593 5591 5589 5586 5583 5580 5578 5575 5572 5569 5566 5562 5559 5555 5552 5548 5544 5539 5536 5531 5527 5523 5519 5514 5510 5505 5501 5497 5492 5488 5483 5478 5473 5468 5464 5459 5454 5449 5445 5440 5434 5429 5423 5417 5412 5407 5402 5397 5392 5387 5383 5379 5375 5372
5617 5616 5614 5612 5610 5609 5607 5605 5603 5601 5599 5597 5595 5593 5591 5589 5586 5584 5581 5578 5575 5572 5569 5566 5563 5559 5556 5553 5549 5545 5541 5537 5533 5529 5524 5520 5515 5511 5506 5502 5498 5493 5489 5484 5480 5475 5470 5465 5460 5455 5450 5445 5440 5435 5430 5424 5419 5413 5408 5403 5398 5393 5389 5384 5380 5376 5373 5370 5367
5613 5611 5610 5608 5606 5604 5603 5601 5599 5597 5595 5593 5591 5588 5586 5584 5581 5578 5575 5573 5569 5566 5563 5560 5557 5554 5550 5546 5542 5538 5534 5530 5525 5521 5517 5513 5508 5503 5499 5494 5490 5486 5481 5477 5472 5467 5461 5456 5451 5446 5442 5437 5431 5426 5420 5414 5409 5404 5399 5395 5390 5386 5382 5379 5375 5371 5368 5365 5363
5609 5608 5606 5604 5602 5600 5599 5596 5594 5593 5590 5588 5586 5583 5581 5578 5575 5573 5570 5567 5564 5560 5557 5554 5551 5547 5544 5539 5535 5531 5527 5523 5518 5514 5510 5505 5501 5496 5492 5487 5482 5478 5474 5469 5464 5459 5453 5448 5443 5437 5432 5427 5422 5417 5412 5406 5401 5396 5392 5388 5384 5380 5377 5374 5370 5367 5364 5362 5359
5605 5604 5602 5600 5598 5596 5594 5592 5590 5588 5586 5584 5581 5578 5575 5573 5570 5567 5564 5561 5558 5554 5551 5548 5544 5541 5537 5533 5529 5524 5520 5516 5511 5507 5503 5498 5494 5489 5484 5480 5475 5470 5466 5461 5456 5450 5445 5439 5434 5428 5423 5417 5412 5408 5403 5399 5394 5389 5385 5382 5378 5375 5372 5369 5367 5364 5361 5359 5356
5602 5600 5598 5596 5594 5593 5590 5588 5586 5584 5581 5579 5576 5573 5570 5567 5564 5561 5558 5555 5552 5549 5545 5542 5538 5534 5530 5526 5522 5518 5513 5509 5504 5500 5496 5491 5486 5482 5477 5473 5468 5463 5458 5453 5448 5442 5436 5430 5424 5419 5413 5408 5404 5399 5395 5391 5387 5384 5380 5376 5374 5371 5368 5366 5364 5361 5358 5355 5353
5598 5596 5594 5593 5590 5588 5586 5584 5581 5579 5576 5573 5570 5568 5565 5562 5559 5556 5553 5549 5546 5543 5539 5536 5532 5528 5524 5519 5515 5511 5506 5501 5497 5493 5488 5484 5480 5475 5470 5465 5460 5455 5451 5445 5440 5434 5428 5422 5416 5409 5404 5399 5395 5392 5389 5385 5382 5378 5375 5372 5369 5367 5365 5363 5361 5358 5355 5353 5350
5594 5592 5590 5588 5586 5584 5581 5579 5576 5574 5571 5568 5565 5562 5559 5556 5553 5550 5547 5544 5540 5537 5533 5529 5526 5522 5518 5513 5509 5504 5499 5494 5489 5485 5481 5477 5473 5468 5464 5458 5453 5448 5443 5438 5432 5426 5420 5414 5408 5402 5396 5391 5387 5385 5383 5380 5377 5374 5371 5369 5366 5364 5362 5360 5358 5356 5353 5351 5348
5590 5588 5586 5584 5581 5579 5576 5574 5571 5569 5566 5563 5560 5557 5554 5550 5547 5544 5541 5538 5534 5531 5527 5523 5519 5515 5511 5507 5502 5498 5493 5488 5483 5478 5474 5469 5465 5461 5456 5452 5446 5441 5435 5430 5424 5418 5412 5407 5401 5395 5390 5385 5381 5379 5377 5375 5373 5370 5368 5366 5364 5362 5359 5357 5355 5353 5351 5349 5346
5586 5584 5581 5579 5577 5574 5571 5569 5566 5563 5560 5557 5554 5551 5548 5545 5541 5538 5535 5532 5528 5525 5521 5517 5513 5508 5504 5500 5495 5491 5486 5481 5476 5472 5467 5463 5458 5454 5449 5444 5439 5434 5428 5423 5416 5410 5405 5399 5394 5389 5384 5380 5377 5374 5373 5372 5369 5368 5365 5363 5361 5359 5357 5354 5353 5350 5348 5346 5344
5581 5579 5577 5574 5571 5569 5566 5563 5560 5557 5554 5551 5548 5545 5542 5539 5536 5533 5529 5526 5522 5519 5515 5511 5507 5502 5498 5493 5488 5484 5479 5474 5469 5465 5460 5456 5452 5447 5443 5438 5433 5427 5421 5415 5409 5404 5398 5393 5389 5384 5380 5376 5373 5371 5370 5368 5367 5365 5363 5361 5359 5357 5354 5352 5350 5348 5345 5343 5341
5576 5574 5571 5569 5566 5563 5560 5558 5554 5552 5549 5546 5543 5540 5537 5534 5530 5527 5523 5520 5516 5513 5509 5504 5500 5496 5492 5487 5482 5478 5473 5469 5464 5458 5454 5449 5445 5441 5436 5431 5426 5420 5414 5408 5402 5397 5392 5388 5384 5379 5376 5373 5370 5369 5367 5366 5364 5362 5360 5359 5357 5354 5352 5349 5347 5345 5343 5340 5338
5571 5568 5566 5563 5560 5558 5555 5552 5549 5546 5543 5540 5537 5534 5531 5528 5524 5521 5518 5514 5510 5507 5503 5498 5494 5490 5485 5481 5476 5471 5467 5462 5458 5453 5448 5443 5438 5434 5429 5424 5419 5413 5407 5401 5396 5391 5387 5383 5379 5376 5373 5370 5368 5366 5365 5363 5362 5360 5358 5356 5354 5352 5349 5347 5344 5342 5340 5338 5335
5565 5563 5560 5558 5555 5552 5549 5546 5544 5540 5538 5534 5531 5529 5525 5522 5519 5515 5512 5508 5504 5501 5497 5493 5489 5484 5479 5475 5470 5465 5460 5456 5451 5447 5442 5437 5432 5427 5423 5418 5412 5407 5401 5395 5391 5386 5383 5379 5376 5373 5370 5368 5366 5364 5363 5361 5359 5358 5356 5354 5352 5349 5347 5344 5342 5339 5337 5334 5332
5560 5557 5554 5552 5549 5547 5544 5541 5538 5535 5532 5529 5526 5523 5520 5517 5514 5510 5506 5502 5499 5495 5491 5487 5483 5478 5474 5469 5464 5460 5455 5450 5445 5440 5435 5431 5426 5421 5416 5412 5406 5400 5395 5390 5386 5382 5379 5375 5373 5370 5368 5366 5364 5362 5361 5359 5357 5355 5353 5351 5349 5346 5344 5341 5339 5336 5334 5331 5329
5554 5552 5549 5546 5544 5541 5539 5535 5533 5529 5527 5524 5521 5518 5514 5511 5508 5504 5501 5497 5493 5489 5485 5481 5477 5472 5467 5463 5458 5454 5449 5444 5439 5434 5429 5424 5420 5415 5410 5405 5400 5394 5389 5385 5382 5378 5375 5372 5370 5368 5366 5364 5362 5360 5359 5357 5355 5353 5351 5349 5346 5344 5341 5339 5336 5334 5331 5329 5326
5548 5546 5544 5541 5539 5536 5533 5530 5527 5524 5521 5519 5515 5512 5509 5506 5502 5499 5495 5492 5488 5484 5480 5476 5471 5467 5462 5457 5452 5447 5443 5438 5434 5429 5423 5418 5414 5409 5405 5400 5395 5390 5385 5381 5378 5375 5372 5370 5368 5365 5364 5362 5360 5358 5356 5354 5353 5350 5348 5346 5344 5341 5339 5336 5334 5331 5328 5326 5323
5543 5540 5538 5536 5533 5530 5528 5525 5522 5519 5516 5513 5510 5507 5504 5500 5497 5493 5489 5486 5483 5479 5475 5470 5466 5461 5457 5452 5447 5442 5437 5432 5428 5423 5418 5413 5408 5404 5399 5395 5390 5385 5381 5378 5374 5372 5370 5368 5365 5364 5362 5360 5358 5356 5354 5352 5350 5348 5346 5344 5341 5339 5336 5334 5331 5329 5326 5323 5320
5537 5535 5533 5530 5528 5525 5522 5519 5517 5514 5511 5508 5504 5501 5498 5495 5492 5488 5484 5480 5477 5474 5469 5465 5460 5456 5451 5446 5442 5437 5432 5427 5422 5417 5412 5407 5403 5398 5394 5390 5386 5382 5378 5374 5372 5369 5368 5366 5364 5362 5360 5358 5356 5354 5352 5350 5348 5346 5344 5341 5339 5336 5334 5331 5328 5326 5323 5321 5318
5531 5529 5527 5525 5523 5520 5517 5514 5511 5508 5505 5503 5499 5496 5493 5489 5486 5482 5479 5475 5471 5468 5464 5460 5455 5450 5445 5441 5437 5432 5427 5422 5416 5411 5406 5402 5397 5393 5389 5385 5382 5379 5375 5372 5369 5368 5366 5364 5362 5360 5358 5356 5354 5352 5350 5348 5345 5343 5341 5339 5336 5334 5331 5329 5326 5323 5321 5318 5315
5526 5524 5522 5519 5517 5514 5512 5509 5506 5503 5500 5497 5494 5490 5487 5484 5480 5477 5473 5469 5465 5462 5458 5454 5449 5445 5440 5435 5431 5427 5422 5417 5411 5405 5401 5396 5392 5388 5384 5381 5378 5375 5373 5370 5368 5366 5364 5362 5360 5358 5356 5354 5352 5349 5347 5345 5343 5340 5338 5336 5333 5331 5329 5326 5324 5321 5318 5315 5313
5520 5518 5516 5514 5511 5509 5506 5504 5500 5497 5494 5491 5488 5485 5481 5478 5475 5471 5468 5464 5460 5456 5452 5448 5444 5439 5434 5430 5425 5422 5417 5412 5406 5401 5396 5391 5387 5384 5380 5377 5375 5373 5370 5368 5366 5364 5362 5360 5359 5356 5354 5352 5349 5347 5345 5343 5340 5338 5335 5333 5331 5328 5326 5324 5321 5319 5316 5313 5310